Location: Most
(50.5330°N, 13.6500°E)
Time: 12:47:56
(UTC+01:00)

N. Korean satellite - Pass Details

Date: 30 October 2021
Orbit: 446 x 495 km, 97.3° (Epoch: 06 December)

Event Time Altitude Azimuth Distance (km) Brightness Sun altitude
Rises 18:28:04 0° 206° (SSW) 2,552 10.8 -7.5°
Reaches altitude 10° 18:30:41 10° 227° (SW) 1,685 10.3 -7.9°
Maximum altitude 18:33:08 17° 269° (W) 1,313 10.1 -8.3°
Drops below altitude 10° 18:35:37 10° 312° (NW) 1,706 9.9 -8.7°
Sets 18:38:18 0° 333° (NNW) 2,598 10.5 -9.1°
